Yankton, SD

12:40 PM CST on December 08, 2019 (GMT -0600)
Gurney Municipal

Weather History for KYKN - October, 2019

Change the Weather History Date:

Saturday, October 12, 2019

  Actual Average Record
Temperature  
Mean Temperature 38 °F -  
Max Temperature 45 °F 65 °F 90 °F (1956)
Min Temperature 32 °F 38 °F 19 °F (1987)
Degree Days  
Heating Degree Days 26    
Moisture  
Dew Point 26 °F    
Average Humidity 61    
Maximum Humidity 73    
Minimum Humidity 40    
Precipitation  
Precipitation 0.00 in - - ()
Sea Level Pressure  
Sea Level Pressure 29.92 in    
Wind  
Wind Speed 18 mph (West)    
Max Wind Speed 32 mph    
Max Gust Speed 41 mph    
Visibility 10 miles    
Events      
Averages and records for this station are not official NWS values.
T = Trace of Precipitation, MM = Missing Value Source: NWS Daily Summary

Daily Weather History Graph

Daily Weather History Graph

Search for Another Location

Airport or City:

Astronomy

Oct. 12, 2019 Rise Set
Actual Time 7:39 AM CDT 6:52 PM CDT
Civil Twilight 7:10 AM CDT 7:20 PM CDT
Nautical Twilight 6:37 AM CDT 7:53 PM CDT
Astronomical Twilight 6:05 AM CDT 8:26 PM CDT
Moon 6:51 PM CDT (10/12) 6:13 AM CDT (10/12)
Length of Visible Light 12h 09m
Length of Day
11h 12m
Waxing Gibbous, 99% of the Moon is Illuminated
Oct 12
Waxing Gibbous
Oct 13
Full
Oct 21
Last Quarter
Oct 27
New
Nov 4
First Quarter

Hourly Weather History & Observations

Time (CDT) Temp. Windchill Dew Point Humidity Pressure Visibility Wind Dir Wind Speed Gust Speed Precip Events Conditions
12:56 AM 32.0 °F 21.2 °F 24.1 °F 73% 30.05 in 10.0 mi WSW 16.1 mph - N/A   Clear
1:56 AM 32.0 °F 21.2 °F 24.1 °F 73% 30.02 in 10.0 mi SW 16.1 mph - N/A   Clear
2:56 AM 32.0 °F 20.8 °F 24.1 °F 73% 30.00 in 10.0 mi WSW 17.3 mph - N/A   Clear
3:56 AM 32.0 °F 21.2 °F 23.0 °F 69% 29.98 in 10.0 mi SW 16.1 mph - N/A   Clear
4:56 AM 32.0 °F 20.5 °F 23.0 °F 69% 29.97 in 10.0 mi WSW 18.4 mph 23.0 mph N/A   Clear
5:56 AM 33.1 °F 21.2 °F 23.0 °F 66% 29.94 in 10.0 mi WSW 20.7 mph 27.6 mph N/A   Clear
6:56 AM 34.0 °F 22.1 °F 24.1 °F 67% 29.93 in 10.0 mi WSW 21.9 mph 28.8 mph N/A   Clear
7:56 AM 36.0 °F 25.6 °F 24.1 °F 62% 29.91 in 10.0 mi WSW 18.4 mph 36.8 mph N/A   Clear
8:56 AM 37.0 °F 25.9 °F 25.0 °F 62% 29.91 in 10.0 mi West 23.0 mph 29.9 mph N/A   Scattered Clouds
9:56 AM 37.9 °F 26.8 °F 24.1 °F 57% 29.89 in 10.0 mi West 24.2 mph 31.1 mph N/A   Overcast
10:56 AM 41.0 °F 30.2 °F 25.0 °F 53% 29.90 in 10.0 mi West 27.6 mph 35.7 mph N/A   Scattered Clouds
11:56 AM 43.0 °F 33.3 °F 23.0 °F 45% 29.88 in 10.0 mi West 25.3 mph 35.7 mph N/A   Mostly Cloudy
12:56 PM 44.1 °F 33.7 °F 21.0 °F 40% 29.87 in 10.0 mi West 32.2 mph 41.4 mph N/A   Overcast
1:56 PM 45.0 °F 36.0 °F 23.0 °F 42% 29.88 in 10.0 mi West 25.3 mph 34.5 mph N/A   Overcast
2:56 PM 44.1 °F 35.9 °F 25.0 °F 47% 29.87 in 10.0 mi WNW 19.6 mph 27.6 mph N/A   Overcast
3:56 PM 45.0 °F 36.0 °F 26.1 °F 48% 29.87 in 10.0 mi WNW 25.3 mph 31.1 mph N/A   Overcast
4:56 PM 43.0 °F 35.4 °F 27.0 °F 53% 29.89 in 10.0 mi NW 16.1 mph - N/A   Overcast
5:56 PM 39.9 °F 32.1 °F 28.0 °F 63% 29.91 in 10.0 mi NNW 13.8 mph - N/A   Overcast
6:56 PM 39.0 °F 31.0 °F 30.0 °F 70% 29.93 in 10.0 mi NW 13.8 mph 18.4 mph N/A   Overcast
7:56 PM 39.0 °F 31.0 °F 30.0 °F 70% 29.93 in 10.0 mi WNW 13.8 mph - N/A   Overcast
8:56 PM 37.9 °F 32.1 °F 28.9 °F 70% 29.93 in 10.0 mi West 8.1 mph - N/A   Overcast
9:56 PM 37.9 °F 34.4 °F 30.0 °F 73% 29.93 in 10.0 mi SW 4.6 mph - N/A   Overcast
10:56 PM 39.9 °F 34.5 °F 30.0 °F 68% 29.91 in 10.0 mi WSW 8.1 mph - N/A   Overcast
11:56 PM 41.0 °F 35.2 °F 28.9 °F 62% 29.89 in 10.0 mi West 9.2 mph - N/A   Overcast